Location: Artiguedieu
(43.5000°N, 0.5454°E)
Time: 21:22:52
(UTC+00:00)

Vanguard 1 - Pass Details

Date: 06 August 2021
Orbit: 652 x 3831 km, 34.3° (Epoch: 19 September)

Event Time Altitude Azimuth Distance (km) Brightness Sun altitude
Rises 14:52:51 0° 261° (W) 3,804 13.8 45.3°
Reaches altitude 10° 14:56:07 10° 242° (WSW) 3,216 13.8 44.7°
Maximum altitude 15:01:22 18° 202° (SSW) 3,217 13.5 43.8°
Drops below altitude 10° 15:08:40 10° 164° (SSE) 4,692 13.7 42.6°
Sets 15:15:07 0° 150° (SSE) 6,380 14.1 41.5°
